Location: Allonne
(49.4086°N, 2.1143°E)
Time: 02:59:50
(UTC+00:00)

SO-50 - Pass Details

Date: 13 December 2023
Orbit: 608 x 660 km, 64.6° (Epoch: 04 March)

Event Time Altitude Azimuth Distance (km) Brightness Sun altitude
Exits shadow 04:37:53 11° 13° (NNE) 1,953 ? -28.2°
Drops below altitude 10° 04:38:26 10° 19° (NNE) 2,052 ? -28.1°
Sets 04:41:44 0° 45° (NE) 2,930 ? -27.5°
